Location: Squirrel Cove
(50.1074°N, 124.9139°W)
Time: 19:00:03
(UTC-08:00)

Envisat - Pass Details

Date: 27 November 2022
Orbit: 763 x 765 km, 98.2° (Epoch: 05 February)

Event Time Altitude Azimuth Distance (km) Brightness Sun altitude
Rises 03:24:53 0° 26° (NNE) 3,246 6.7 -41.8°
Reaches altitude 10° 03:27:50 10° 43° (NE) 2,314 6.0 -41.3°
Enters shadow 03:29:49 17° 64° (ENE) 1,873 5.5 -41.0°
